TimeCDT,TemperatureF,Dew PointF,Humidity,Sea Level PressureIn,VisibilityMPH,Wind Direction,Wind SpeedMPH,Gust SpeedMPH,PrecipitationIn,Events,Conditions,WindDirDegrees,DateUTC
12:15 AM,48.2,42.8,82,29.88,10.0,West,12.7,-,0.00,,Clear,270,2013-10-07 05:15:00
12:35 AM,48.2,42.8,82,29.88,10.0,West,13.8,-,0.00,,Clear,270,2013-10-07 05:35:00
12:55 AM,48.2,42.8,82,29.88,10.0,West,12.7,-,0.00,,Clear,270,2013-10-07 05:55:00
1:15 AM,48.2,41.0,76,29.89,10.0,West,11.5,-,0.00,,Clear,280,2013-10-07 06:15:00
1:35 AM,50.0,41.0,71,29.89,10.0,WNW,12.7,-,0.00,,Clear,290,2013-10-07 06:35:00
1:55 AM,50.0,41.0,71,29.89,10.0,WNW,11.5,16.1,0.00,,Clear,300,2013-10-07 06:55:00
2:15 AM,51.8,42.8,71,29.90,10.0,WNW,9.2,17.3,0.00,,Clear,300,2013-10-07 07:15:00
2:35 AM,50.0,42.8,76,29.90,10.0,WNW,9.2,-,0.00,,Clear,300,2013-10-07 07:35:00
2:55 AM,48.2,42.8,82,29.91,10.0,WNW,9.2,-,0.00,,Clear,300,2013-10-07 07:55:00
3:15 AM,48.2,42.8,82,29.91,10.0,NW,6.9,-,0.00,,Clear,320,2013-10-07 08:15:00
3:35 AM,48.2,42.8,82,29.90,10.0,NW,9.2,-,0.00,,Clear,310,2013-10-07 08:35:00
3:55 AM,46.4,42.8,87,29.90,10.0,NW,8.1,-,0.00,,Clear,310,2013-10-07 08:55:00
4:15 AM,46.4,42.8,87,29.90,10.0,NW,6.9,-,0.00,,Clear,310,2013-10-07 09:15:00
4:35 AM,46.4,42.8,87,29.91,10.0,WNW,8.1,-,0.00,,Clear,300,2013-10-07 09:35:00
4:55 AM,46.4,41.0,81,29.91,10.0,NW,6.9,-,0.00,,Clear,310,2013-10-07 09:55:00
5:15 AM,44.6,41.0,87,29.92,10.0,WNW,6.9,-,0.00,,Clear,300,2013-10-07 10:15:00
5:35 AM,44.6,41.0,87,29.93,10.0,NW,6.9,-,0.00,,Clear,310,2013-10-07 10:35:00
5:55 AM,42.8,39.2,87,29.93,10.0,WNW,6.9,-,0.00,,Clear,290,2013-10-07 10:55:00
6:15 AM,42.8,39.2,87,29.94,10.0,SW,8.1,-,0.00,,Clear,220,2013-10-07 11:15:00
6:35 AM,41.0,39.2,93,29.93,10.0,West,5.8,-,0.00,,Clear,260,2013-10-07 11:35:00
6:55 AM,39.2,39.2,100,29.94,10.0,SSW,3.5,-,0.00,,Clear,210,2013-10-07 11:55:00
7:15 AM,39.2,39.2,100,29.95,10.0,South,3.5,-,0.00,,Clear,180,2013-10-07 12:15:00
7:35 AM,37.4,37.4,100,29.95,10.0,SW,5.8,-,0.00,,Clear,220,2013-10-07 12:35:00
7:55 AM,39.2,39.2,100,29.96,10.0,SW,3.5,-,0.00,,Clear,220,2013-10-07 12:55:00
8:15 AM,39.2,39.2,100,29.96,9.0,SW,3.5,-,0.00,,Clear,220,2013-10-07 13:15:00
8:35 AM,41.0,41.0,100,29.96,10.0,Calm,Calm,-,0.00,,Clear,0,2013-10-07 13:35:00
8:55 AM,44.6,42.8,93,29.96,10.0,Calm,Calm,-,0.00,,Clear,0,2013-10-07 13:55:00
9:15 AM,46.4,42.8,87,29.96,10.0,Calm,Calm,-,0.00,,Clear,0,2013-10-07 14:15:00
9:35 AM,48.2,41.0,76,29.97,9.0,NNE,3.5,-,0.00,,Clear,30,2013-10-07 14:35:00
9:55 AM,51.8,41.0,67,29.98,10.0,ENE,3.5,-,0.00,,Clear,60,2013-10-07 14:55:00
10:15 AM,51.8,41.0,67,29.98,10.0,Calm,Calm,-,0.00,,Clear,0,2013-10-07 15:15:00
10:35 AM,53.6,41.0,62,29.98,10.0,Calm,Calm,-,0.00,,Clear,0,2013-10-07 15:35:00
10:55 AM,53.6,42.8,67,29.98,9.0,South,3.5,-,0.00,,Clear,180,2013-10-07 15:55:00
11:15 AM,55.4,42.8,63,29.98,10.0,South,3.5,-,0.00,,Clear,180,2013-10-07 16:15:00
11:35 AM,57.2,42.8,59,29.98,10.0,Calm,Calm,-,0.00,,Clear,0,2013-10-07 16:35:00
11:55 AM,59.0,42.8,55,29.98,9.0,SSW,4.6,-,0.00,,Clear,200,2013-10-07 16:55:00
12:15 PM,60.8,41.0,48,29.97,10.0,Calm,Calm,-,0.00,,Clear,0,2013-10-07 17:15:00
12:35 PM,60.8,42.8,52,29.98,10.0,SSW,5.8,-,0.00,,Clear,200,2013-10-07 17:35:00
12:55 PM,62.6,42.8,48,29.97,10.0,SE,5.8,-,0.00,,Clear,140,2013-10-07 17:55:00
1:15 PM,62.6,42.8,48,29.96,10.0,South,4.6,-,0.00,,Clear,190,2013-10-07 18:15:00
1:35 PM,64.4,42.8,45,29.95,9.0,SE,5.8,-,0.00,,Clear,130,2013-10-07 18:35:00
1:55 PM,64.4,42.8,45,29.94,9.0,SE,4.6,-,0.00,,Clear,130,2013-10-07 18:55:00
2:15 PM,66.2,42.8,43,29.94,9.0,SSE,5.8,-,0.00,,Clear,150,2013-10-07 19:15:00
2:35 PM,66.2,41.0,40,29.93,9.0,SSW,5.8,-,0.00,,Clear,210,2013-10-07 19:35:00
2:55 PM,68.0,42.8,40,29.92,10.0,SSW,4.6,-,0.00,,Clear,210,2013-10-07 19:55:00
3:15 PM,68.0,41.0,37,29.92,10.0,South,5.8,-,0.00,,Clear,180,2013-10-07 20:15:00
3:35 PM,68.0,41.0,37,29.91,10.0,SSE,5.8,-,0.00,,Clear,150,2013-10-07 20:35:00
3:55 PM,69.8,42.8,38,29.90,7.0,South,6.9,-,0.00,,Clear,180,2013-10-07 20:55:00
4:15 PM,69.8,41.0,35,29.90,10.0,South,8.1,-,0.00,,Clear,180,2013-10-07 21:15:00
4:35 PM,69.8,41.0,35,29.90,10.0,SSE,8.1,-,0.00,,Clear,160,2013-10-07 21:35:00
4:55 PM,69.8,42.8,38,29.89,10.0,SSE,6.9,-,0.00,,Clear,160,2013-10-07 21:55:00
5:15 PM,68.0,42.8,40,29.89,10.0,SSE,6.9,-,0.00,,Clear,160,2013-10-07 22:15:00
5:35 PM,68.0,42.8,40,29.88,10.0,South,6.9,-,0.00,,Clear,170,2013-10-07 22:35:00
5:55 PM,66.2,44.6,46,29.87,9.0,SSE,5.8,-,0.00,,Clear,160,2013-10-07 22:55:00
6:15 PM,64.4,44.6,49,29.87,10.0,SSE,5.8,-,0.00,,Clear,160,2013-10-07 23:15:00
6:35 PM,64.4,46.4,52,29.87,10.0,SSE,3.5,-,0.00,,Clear,160,2013-10-07 23:35:00
6:55 PM,60.8,44.6,55,29.86,10.0,SSE,3.5,-,0.00,,Clear,150,2013-10-07 23:55:00
7:15 PM,57.2,46.4,67,29.86,10.0,SSE,5.8,-,0.00,,Clear,150,2013-10-08 00:15:00
7:35 PM,53.6,44.6,72,29.86,10.0,SSE,5.8,-,0.00,,Clear,150,2013-10-08 00:35:00
7:55 PM,53.6,46.4,77,29.86,10.0,SSE,9.2,-,0.00,,Clear,150,2013-10-08 00:55:00
8:15 PM,53.6,46.4,77,29.86,10.0,SSE,8.1,-,0.00,,Clear,160,2013-10-08 01:15:00
8:35 PM,51.8,46.4,82,29.85,10.0,SSE,6.9,-,0.00,,Clear,150,2013-10-08 01:35:00
8:55 PM,51.8,46.4,82,29.84,10.0,SE,6.9,-,0.00,,Clear,140,2013-10-08 01:55:00
9:15 PM,51.8,46.4,82,29.84,10.0,SSE,6.9,-,0.00,,Clear,150,2013-10-08 02:15:00
9:35 PM,50.0,46.4,87,29.85,10.0,SSE,5.8,-,0.00,,Clear,150,2013-10-08 02:35:00
9:55 PM,48.2,46.4,93,29.84,10.0,SSE,4.6,-,0.00,,Clear,150,2013-10-08 02:55:00
10:15 PM,48.2,46.4,93,29.84,10.0,SSE,5.8,-,0.00,,Clear,150,2013-10-08 03:15:00
10:35 PM,48.2,46.4,93,29.83,10.0,SE,5.8,-,0.00,,Clear,140,2013-10-08 03:35:00
10:55 PM,48.2,46.4,93,29.83,10.0,SSE,5.8,-,0.00,,Clear,150,2013-10-08 03:55:00
11:15 PM,46.4,46.4,100,29.82,10.0,SSE,6.9,-,0.00,,Clear,150,2013-10-08 04:15:00
11:35 PM,46.4,46.4,100,29.81,10.0,SSE,5.8,-,0.00,,Clear,150,2013-10-08 04:35:00
11:55 PM,46.4,46.4,100,29.80,10.0,SSE,5.8,-,0.00,,Clear,160,2013-10-08 04:55:00